Location: West Cummington
(42.4920°N, 72.9680°W)
Time: 18:35:38
(UTC-05:00)

Daily predictions for brighter satellites

Satellite Brightness Start Highest point End
(mag) Time Altitude Azimuth Time Altitude Azimuth Time Altitude Azimuth
ERS-2 3.3 18:02:18 10° ESE 18:05:18 24° ENE 18:08:18 10° NNE
SL-16 R/B 2.4 18:00:33 10° NNW 18:06:14 82° WSW 18:11:53 10° SSE
Cosmos 1782 Rocket 4.2 18:04:41 10° SSE 18:08:40 34° E 18:12:38 10° NNE
Okean 3 3.5 18:06:26 10° N 18:10:37 90° NNW 18:14:48 10° S
CENTAUR R/B 2.6 18:05:14 10° SW 18:11:13 86° NW 18:18:09 10° NE
Cosmos 2297 Rocket 3.5 18:06:16 10° SW 18:11:38 43° WNW 18:17:02 10° NNE
Aureole 3 3.9 18:06:29 10° S 18:11:59 85° W 18:16:17 10° N
Envisat 4.2 18:08:26 10° ESE 18:12:10 21° ENE 18:15:55 10° NNE
FALCON 9 R/B 4.1 18:07:17 10° WSW 18:13:13 54° S 18:34:59 10° ESE
CZ-4C R/B 3.7 18:07:13 10° NNW 18:13:15 30° NE 18:19:55 10° E
OE (NEXTSAT) 4.5 18:10:58 10° WSW 18:14:30 66° SSE 18:17:56 11° ENE
COSMO-SKYMED 1 3.1 18:14:24 10° N 18:18:43 66° WNW 18:23:01 10° SSW
SL-8 R/B 4.3 18:14:14 10° W 18:18:54 52° NNW 18:23:36 10° ENE
H-2A R/B 2.8 18:16:44 10° SSE 18:20:32 55° ENE 18:24:22 10° N
OAO 2 Rocket 4.4 18:16:24 10° WSW 18:20:54 35° S 18:25:22 10° ESE
FREGAT/IRIS 3.3 18:18:51 10° SE 18:21:31 32° ENE 18:24:14 10° N
HJ-1C 4.5 18:19:32 10° SE 18:22:26 26° ENE 18:25:18 10° NNE
Cosmos 1603 3.9 18:19:48 10° NNW 18:25:17 49° ENE 18:30:42 10° SE
Tsikada Rocket 4.3 18:20:09 10° SSE 18:26:13 47° E 18:32:18 10° NNE
Cosmos 1110 Rocket 4.4 18:21:15 10° N 18:26:16 41° ENE 18:31:17 10° SE
Sich 1 Rocket 3.5 18:23:35 10° S 18:28:03 74° E 18:32:31 10° NNE
Cosmos 921 Rocket 3.1 18:25:41 10° NNW 18:30:13 89° ENE 18:34:41 10° SSE
COSMOS 2455 3.4 18:26:47 10° S 18:32:11 36° ESE 18:37:37 10° NE
Cosmos 1269 Rocket 4.0 18:27:05 10° SSW 18:32:21 79° ESE 18:37:39 10° NNE
Cosmos 1464 Rocket 4.1 18:27:20 10° N 18:33:29 83° W 18:39:38 10° S
Thor Agena Rocket 4.2 18:30:01 10° NE 18:34:30 31° E 18:38:57 10° SSE
Cosmos 2263 Rocket 3.0 18:31:14 10° SSE 18:35:47 27° ESE 18:40:22 10° NE
USA 32 4.0 18:31:49 10° S 18:37:01 75° E 18:42:16 10° N
Okean 2 Rocket 3.4 18:33:35 10° SSE 18:37:43 42° E 18:41:54 10° NNE
SJ-6B 3.2 18:35:11 10° SE 18:38:43 38° ENE 18:42:21 10° N
USA 186 3.6 18:39:20 16° NE 18:39:20 16° NE 18:41:01 10° NNE
Iridium 4 Rocket 3.2 18:34:55 10° N 18:39:39 89° W 18:44:00 10° S
Meteor 1-4 Rocket 3.0 18:37:37 10° SSE 18:40:54 37° E 18:44:15 10° NNE
ALOS 4.0 18:40:11 10° SSW 18:44:28 36° W 18:48:48 10° NNW
Meteor 1-13 Rocket 4.3 18:39:05 10° N 18:44:28 52° ENE 18:49:50 10° SSE
CZ-2D R/B 3.7 18:43:16 10° SE 18:46:55 40° ENE 18:50:36 10° N
Cosmos 2151 Rocket 4.4 18:43:47 10° SSE 18:47:38 29° E 18:51:29 10° NNE
Cosmos 1602 3.6 18:48:50 10° S 18:52:44 88° E 18:56:38 10° N
Okean 1 4.1 18:50:23 10° NNW 18:54:17 54° W 18:58:09 10° S
Cosmos 1331 Rocket 4.0 18:50:04 10° NNW 18:55:22 65° ENE 19:00:37 10° SSE
Cosmos 2346 Rocket 4.4 18:50:28 10° S 18:56:32 61° E 19:02:35 10° NNE
Alouette 2 Rocket 3.3 18:56:42 10° S 19:00:07 48° E 19:03:52 10° NNE
ATLAS CENTAUR R/B 1.9 18:57:30 10° NNW 19:01:29 41° NE 19:02:49 32° E
Spot 2 Rocket 4.3 19:00:17 26° E 19:01:34 30° ENE 19:05:56 10° N
YAOGAN 6 4.3 19:03:07 19° NE 19:03:07 19° NE 19:04:39 10° NNE
Cosmos 2227 4.4 19:02:02 10° SSW 19:07:43 73° WNW 19:13:27 10° NNE
Meteor 2-4 Rocket 3.6 19:03:51 10° N 19:09:37 71° ENE 19:15:12 10° SSE
ARGOS Delta rocket 3.6 19:05:53 10° NNE 19:10:40 70° E 19:15:10 10° S
Meteor 1-5 Rocket 4.4 19:06:10 10° S 19:11:53 53° E 19:17:41 10° NNE
Cosmos 1975 Rocket 3.9 19:09:38 10° NNW 19:13:59 52° W 19:18:18 10° S
Resurs 1-3 3.8 19:16:55 43° E 19:17:35 48° ENE 19:21:49 10° N
Cosmos 2251 Rocket 3.4 19:15:08 10° S 19:20:16 61° ESE 19:25:27 10° NNE
Cosmos 1634 Rocket 3.9 19:15:06 10° N 19:21:17 70° E 19:27:25 10° SSE
SeaSat 1 2.4 19:21:53 36° SE 19:23:49 66° ENE 19:28:44 10° NNW
Cosmos 1536 2.7 19:23:00 10° S 19:27:02 81° E 19:31:07 10° N
Cosmos 1302 Rocket 3.9 19:22:26 10° NNW 19:27:39 70° ENE 19:29:32 39° SE
Cosmos 1943 3.1 19:23:04 10° NNW 19:28:46 88° ENE 19:32:10 25° SSE
Lacrosse 5 rocket 3.1 19:26:05 10° SSW 19:27:09 17° S 19:27:09 17° S
USA 215 3.2 19:27:29 30° ENE 19:30:45 60° SE 19:37:11 10° SSW
Cosmos 1184 Rocket 3.6 19:28:25 10° NNW 19:31:37 51° W 19:32:30 38° SSW
Cosmos 2142 Rocket 4.4 19:26:51 10° N 19:33:13 74° E 19:39:18 11° SSE
Meteor 1-11 Rocket 3.9 19:27:55 10° SSW 19:33:30 73° W 19:39:15 10° N
Resurs 01 Rocket 1.4 19:38:44 71° SE 19:39:09 82° ENE 19:43:36 10° N
Gbstr 26 Del rocket 3.6 19:40:10 10° W 19:43:45 43° NNW 19:43:57 42° NNW
Cosmos 1536 Rocket 3.5 19:40:10 10° N 19:44:35 81° W 19:45:08 67° SSW
Envisat 3.8 19:45:55 10° S 19:50:49 50° W 19:55:47 10° NNW
Meteor 2-20 4.3 19:50:57 10° S 19:57:10 67° E 20:03:09 10° NNE
Cosmos 1939 Rocket 3.7 19:59:33 50° NW 19:59:33 50° NW 20:02:47 10° NNW
CZ-4C R/B 2.9 19:55:18 10° NW 20:02:34 81° WSW 20:05:22 45° SSE
USA 267 3.7 20:03:53 44° NE 20:04:30 46° NNE 20:10:39 10° NW
Cosmos 2180 Rocket 4.4 20:09:07 10° N 20:15:17 87° NNE 20:15:17 87° NNE
COSMOS 2455 4.0 20:12:23 10° WSW 20:18:02 41° NW 20:23:20 12° NNE
Cosmos 2263 Rocket 3.1 20:14:07 10° SW 20:19:26 45° WNW 20:24:40 11° NNE
BREEZE-M DEB (TANK) 4.4 20:18:26 10° WSW 20:22:22 66° NNW 20:37:36 10° ENE
ATLAS CENTAUR R/B 3.9 20:36:56 10° WNW 20:39:07 20° W 20:39:07 20° W
H-2A R/B 4.2 20:47:17 19° N 20:47:17 19° N 20:48:42 10° N
USA 215 4.2 21:14:51 43° WNW 21:14:51 43° WNW 21:19:50 10° W
